Date,TemperatureHighF,TemperatureAvgF,TemperatureLowF,DewpointHighF,DewpointAvgF,DewpointLowF,HumidityHigh,HumidityAvg,HumidityLow,PressureMaxIn,PressureMinIn,WindSpeedMaxMPH,WindSpeedAvgMPH,GustSpeedMaxMPH,PrecipitationSumIn
2013-5-1,86,74,58,42,24,14,51,18,9,30.08,29.84,16,5,30,0.00
2013-5-2,93,71,50,46,39,35,61,35,14,30.15,30.08,6,1,10,0.00
2013-5-3,94,69,46,52,42,37,77,43,18,30.09,29.80,5,1,12,0.00
2013-5-4,90,72,53,51,41,29,85,40,14,29.80,29.56,12,4,22,0.00
2013-5-5,65,58,54,50,49,46,84,71,54,29.83,29.63,6,1,11,0.00
2013-5-6,68,58,49,56,51,45,91,77,52,30.00,29.83,3,0,8,0.05
2013-5-7,70,60,51,54,51,47,94,76,46,30.06,29.98,7,1,11,0.06
2013-5-8,66,55,50,54,50,47,93,82,63,30.15,30.05,4,1,10,0.00
2013-5-9,70,57,48,54,50,46,93,78,56,30.18,30.09,6,2,12,0.00
2013-5-10,79,62,49,59,52,47,93,73,49,30.20,30.09,5,1,12,0.00
2013-5-11,91,65,47,64,53,44,94,69,38,30.15,30.05,6,1,12,0.00
2013-5-12,84,65,46,61,52,43,94,66,40,30.14,30.02,6,1,12,0.00
2013-5-13,87,67,45,61,52,43,93,63,39,30.08,29.93,5,1,12,0.00
2013-5-14,87,68,50,56,51,46,88,58,33,29.97,29.88,5,1,12,0.00
2013-5-15,78,62,45,52,46,41,89,60,34,30.03,29.96,6,2,13,0.00
2013-5-16,71,61,51,55,49,46,81,67,48,30.02,29.95,8,2,19,0.00
2013-5-17,69,56,42,50,44,40,93,67,40,30.08,29.97,8,2,18,0.00
2013-5-18,82,62,41,53,46,38,92,60,30,30.14,30.06,7,2,15,0.00
2013-5-19,86,67,46,50,44,35,87,51,18,30.14,29.98,7,1,14,0.00
2013-5-20,90,76,54,50,42,35,75,33,20,30.00,29.89,9,3,16,0.00
2013-5-21,74,61,51,47,44,36,81,56,30,29.99,29.89,10,5,21,0.00
2013-5-22,70,55,38,42,35,27,76,48,25,30.04,29.89,8,3,15,0.00
2013-5-23,71,57,40,45,40,36,88,58,34,30.01,29.92,8,2,14,0.00
2013-5-24,75,56,39,47,41,35,89,63,34,30.01,29.94,7,1,15,0.00
2013-5-28,74,65,57,58,54,51,96,69,53,30.00,29.92,8,2,17,0.00
2013-5-29,75,64,56,56,52,47,82,65,46,29.97,29.88,7,2,15,0.00
2013-5-30,82,64,44,51,46,41,93,56,28,30.00,29.92,6,2,13,0.00
2013-5-31,90,70,47,55,49,43,87,52,25,30.02,29.91,5,1,10,0.00